Location: Unspecified
(35.7250°N, 0.0000°E)
Time: 06:19:51
(UTC+00:00)

SR - Pass Details

Date: 24 June 2019
Orbit: 581 x 875 km, 66.7° (Epoch: 15 July)

Event Time Altitude Azimuth Distance (km) Brightness Sun altitude
Exits shadow 03:12:08 29° 237° (WSW) 1,080 ? -15.8°
Maximum altitude 03:14:02 52° 300° (WNW) 722 ? -15.5°
Drops below altitude 10° 03:18:12 10° 17° (NNE) 1,920 ? -14.9°
Sets 03:20:32 0° 22° (NNE) 2,846 ? -14.6°
